Temp
-17 -16 -16 -16 -16 -15 -15 -16 -15 -15 -15 -14 -14 -13 -13 -13 -13 -13 -11 -11 -10 -11 -11 -11 -11 -10 -10 -10 -10 -9 -10 -10 -10 -9 -8 -10 -9 -8 -8 -8 -8 -8 -8 -8 -8
-17 -17 -17 -17 -16 -16 -15 -16 -15 -15 -15 -16 -14 -13 -13 -13 -13 -12 -13 -12 -11 -11 -11 -10 -11 -10 -10 -10 -10 -10 -10 -10 -10 -10 -9 -10 -9 -9 -8 -8 -8 -8 -8 -8 -7
-17 -17 -17 -17 -17 -16 -16 -16 -15 -16 -16 -15 -16 -14 -14 -13 -13 -12 -12 -12 -12 -11 -11 -10 -10 -10 -10 -10 -11 -10 -10 -10 -9 -10 -10 -10 -9 -9 -9 -8 -8 -8 -8 -8 -8
-17 -17 -17 -17 -17 -16 -16 -16 -16 -16 -16 -16 -16 -16 -14 -12 -13 -12 -12 -12 -13 -12 -11 -10 -10 -10 -10 -11 -11 -10 -10 -10 -10 -10 -10 -10 -10 -10 -9 -9 -8 -8 -7 -8 -8
-17 -17 -17 -17 -17 -16 -16 -16 -16 -16 -16 -16 -16 -16 -14 -14 -13 -12 -12 -12 -12 -12 -11 -10 -10 -10 -10 -11 -11 -10 -10 -10 -10 -10 -10 -10 -10 -10 -9 -9 -9 -9 -8 -8 -7
-18 -17 -17 -17 -17 -16 -16 -16 -16 -16 -16 -16 -16 -16 -15 -15 -14 -14 -13 -13 -13 -12 -12 -12 -11 -11 -10 -11 -10 -11 -10 -10 -9 -10 -10 -9 -10 -10 -10 -9 -9 -9 -9 -8 -8
-18 -17 -17 -17 -16 -16 -16 -16 -16 -16 -16 -16 -16 -16 -15 -14 -15 -14 -14 -13 -13 -12 -12 -13 -12 -11 -10 -11 -10 -11 -10 -10 -9 -10 -10 -9 -10 -10 -10 -9 -9 -9 -9 -9 -8
-18 -18 -17 -17 -16 -16 -16 -15 -15 -15 -16 -16 -16 -16 -15 -15 -15 -15 -14 -14 -13 -13 -13 -13 -12 -11 -11 -10 -11 -11 -10 -9 -10 -10 -10 -10 -10 -10 -10 -9 -9 -9 -9 -9 -9
-19 -18 -17 -17 -16 -16 -16 -15 -15 -15 -15 -15 -15 -16 -15 -16 -14 -14 -14 -14 -14 -13 -13 -13 -12 -11 -11 -11 -11 -11 -10 -9 -9 -10 -9 -10 -10 -10 -9 -9 -9 -9 -9 -9 -9
-19 -18 -18 -17 -17 -16 -16 -16 -16 -16 -16 -15 -15 -15 -14 -14 -14 -14 -15 -15 -14 -14 -13 -13 -12 -11 -11 -10 -10 -10 -10 -9 -9 -10 -10 -10 -10 -10 -10 -9 -9 -9 -9 -9 -9
-19 -19 -18 -18 -17 -17 -17 -17 -17 -17 -15 -15 -14 -14 -14 -14 -15 -14 -15 -15 -14 -15 -14 -15 -12 -11 -11 -11 -11 -11 -11 -10 -10 -10 -10 -10 -10 -10 -9 -9 -9 -9 -9 -9 -9
-20 -20 -19 -19 -18 -18 -18 -17 -16 -16 -15 -15 -15 -14 -15 -15 -15 -14 -15 -16 -15 -15 -15 -15 -12 -13 -13 -13 -12 -12 -11 -11 -11 -10 -10 -10 -9 -9 -9 -9 -10 -10 -9 -9 -9
-22 -20 -20 -20 -19 -19 -18 -17 -18 -17 -17 -16 -16 -15 -14 -14 -15 -16 -15 -15 -14 -15 -15 -15 -14 -15 -14 -13 -12 -12 -11 -11 -11 -11 -10 -10 -9 -9 -10 -10 -10 -10 -10 -9 -9
-24 -24 -22 -21 -21 -19 -18 -18 -18 -18 -18 -16 -16 -15 -15 -15 -15 -17 -16 -16 -15 -16 -14 -15 -15 -15 -15 -14 -13 -12 -12 -12 -12 -11 -10 -10 -9 -9 -9 -9 -10 -10 -10 -10 -10
-24 -24 -24 -23 -21 -20 -20 -20 -20 -21 -20 -18 -17 -16 -16 -15 -15 -16 -17 -17 -16 -14 -14 -13 -14 -14 -15 -14 -14 -13 -14 -13 -12 -11 -11 -11 -10 -9 -9 -9 -10 -10 -10 -10 -10
-25 -24 -24 -24 -24 -23 -24 -23 -23 -22 -22 -20 -17 -17 -16 -15 -15 -18 -18 -17 -16 -16 -16 -16 -15 -15 -15 -15 -15 -15 -14 -14 -13 -12 -12 -11 -10 -9 -9 -10 -10 -10 -10 -10 -10
-25 -25 -25 -24 -24 -24 -24 -23 -23 -22 -22 -21 -18 -18 -17 -16 -16 -17 -18 -17 -17 -17 -16 -16 -15 -15 -16 -16 -16 -15 -14 -14 -14 -13 -10 -11 -10 -8 -9 -10 -11 -10 -10 -10 -10
-25 -25 -25 -25 -25 -24 -24 -24 -23 -23 -22 -21 -19 -18 -18 -17 -18 -19 -18 -18 -16 -16 -16 -15 -16 -16 -15 -16 -14 -14 -14 -14 -13 -12 -11 -12 -10 -9 -10 -10 -11 -11 -11 -10 -10
-25 -25 -26 -25 -25 -25 -24 -24 -23 -23 -22 -21 -21 -21 -20 -20 -19 -20 -19 -18 -17 -16 -16 -15 -16 -15 -15 -15 -15 -14 -14 -14 -14 -13 -12 -11 -10 -10 -10 -11 -10 -11 -11 -11 -10
-26 -25 -26 -26 -26 -25 -25 -24 -24 -23 -22 -22 -21 -21 -21 -20 -21 -20 -19 -18 -17 -16 -16 -15 -16 -15 -15 -15 -16 -15 -14 -14 -13 -13 -12 -11 -11 -11 -10 -11 -11 -11 -10 -10 -11
-26 -26 -26 -26 -26 -26 -25 -24 -24 -23 -23 -22 -21 -21 -21 -20 -20 -19 -18 -18 -17 -16 -17 -15 -16 -15 -16 -15 -14 -14 -14 -14 -13 -13 -13 -12 -11 -11 -11 -11 -11 -11 -11 -11 -10
-26 -26 -26 -26 -26 -26 -25 -25 -24 -24 -23 -23 -22 -21 -20 -20 -20 -18 -18 -17 -17 -17 -16 -16 -16 -16 -15 -15 -14 -14 -14 -14 -13 -12 -12 -12 -11 -11 -11 -11 -11 -11 -11 -11 -11
-26 -26 -26 -26 -26 -26 -25 -25 -25 -24 -23 -22 -22 -20 -20 -19 -19 -19 -18 -17 -17 -17 -16 -16 -16 -16 -16 -16 -15 -15 -14 -14 -14 -14 -13 -13 -12 -12 -12 -11 -11 -11 -11 -11 -11
-27 -26 -27 -26 -26 -26 -26 -25 -25 -24 -23 -23 -21 -21 -21 -20 -20 -19 -18 -18 -17 -17 -17 -16 -16 -15 -14 -12 -13 -13 -13 -14 -14 -13 -13 -12 -12 -12 -12 -12 -12 -12 -12 -13 -12
-27 -26 -26 -26 -26 -26 -26 -25 -25 -24 -23 -23 -21 -20 -20 -20 -19 -19 -19 -17 -17 -17 -17 -16 -16 -15 -15 -15 -15 -14 -14 -15 -14 -13 -13 -12 -13 -13 -13 -13 -12 -13 -13 -13 -13
-27 -27 -27 -26 -26 -26 -26 -25 -24 -24 -24 -23 -20 -20 -21 -19 -19 -19 -18 -17 -18 -18 -17 -17 -16 -16 -16 -15 -15 -15 -16 -16 -14 -14 -13 -14 -14 -14 -14 -13 -13 -14 -14 -13 -13
-27 -27 -27 -27 -27 -26 -26 -25 -24 -24 -23 -22 -22 -23 -22 -19 -18 -17 -17 -17 -16 -16 -16 -16 -16 -16 -16 -16 -16 -16 -14 -13 -13 -16 -14 -14 -13 -15 -15 -14 -14 -14 -14 -13 -13
Height
5648 5657 5667 5676 5686 5696 5706 5713 5720 5726 5734 5743 5753 5760 5767 5773 5780 5787 5795 5801 5807 5813 5819 5824 5829 5834 5839 5845 5847 5852 5858 5859 5861 5861 5867 5870 5871 5873 5874 5874 5877 5878 5877 5880 5881
5634 5644 5654 5664 5674 5684 5695 5704 5712 5718 5724 5733 5742 5751 5759 5765 5771 5779 5789 5793 5800 5806 5812 5818 5823 5828 5835 5840 5844 5848 5855 5856 5856 5858 5865 5866 5868 5870 5871 5871 5875 5875 5876 5878 5881
5623 5632 5642 5652 5662 5672 5683 5694 5702 5710 5717 5724 5731 5740 5748 5755 5763 5773 5778 5787 5793 5798 5805 5811 5817 5822 5830 5836 5841 5845 5852 5849 5853 5858 5861 5860 5866 5866 5869 5870 5874 5872 5873 5875 5878
5610 5621 5631 5642 5651 5662 5673 5683 5692 5701 5709 5716 5722 5730 5739 5744 5757 5761 5772 5780 5786 5791 5798 5805 5812 5817 5824 5831 5836 5842 5845 5846 5851 5853 5856 5859 5862 5863 5865 5868 5872 5870 5872 5873 5874
5598 5609 5619 5631 5641 5651 5662 5672 5682 5691 5699 5706 5713 5721 5723 5734 5744 5754 5764 5771 5778 5785 5792 5797 5805 5812 5819 5826 5830 5837 5840 5840 5846 5849 5852 5855 5859 5860 5862 5865 5869 5870 5869 5871 5871
5586 5597 5607 5618 5629 5639 5650 5661 5670 5680 5688 5695 5702 5709 5716 5725 5738 5744 5754 5762 5770 5778 5784 5789 5798 5804 5811 5818 5822 5831 5833 5833 5842 5847 5846 5851 5855 5858 5859 5861 5864 5867 5865 5868 5869
5573 5585 5595 5606 5616 5627 5638 5648 5657 5666 5675 5683 5689 5698 5706 5725 5729 5736 5744 5753 5763 5770 5775 5781 5788 5796 5805 5812 5819 5825 5829 5830 5837 5842 5842 5846 5852 5853 5852 5855 5859 5863 5863 5865 5866
5560 5572 5583 5594 5605 5616 5626 5636 5644 5652 5660 5670 5678 5684 5695 5708 5716 5725 5734 5744 5754 5760 5765 5771 5779 5788 5796 5803 5812 5818 5823 5823 5831 5834 5838 5841 5848 5848 5847 5853 5853 5858 5861 5861 5863
5546 5559 5571 5582 5593 5604 5614 5624 5632 5639 5645 5653 5664 5674 5678 5693 5710 5721 5731 5739 5744 5751 5754 5757 5768 5779 5789 5795 5804 5810 5814 5817 5825 5828 5834 5838 5844 5843 5844 5849 5850 5853 5858 5857 5859
5532 5545 5557 5570 5581 5592 5602 5610 5616 5620 5628 5639 5651 5661 5678 5693 5706 5715 5722 5730 5736 5741 5745 5746 5756 5770 5781 5787 5795 5803 5807 5812 5820 5827 5829 5832 5838 5837 5840 5844 5846 5850 5854 5855 5855
5517 5530 5543 5557 5568 5579 5584 5590 5596 5607 5627 5644 5658 5667 5672 5681 5690 5703 5711 5718 5723 5730 5737 5740 5748 5764 5775 5783 5791 5797 5800 5806 5814 5819 5819 5826 5830 5833 5834 5841 5844 5848 5849 5852 5851
5502 5516 5529 5543 5554 5562 5566 5581 5601 5610 5618 5628 5640 5645 5653 5664 5675 5688 5698 5704 5711 5721 5732 5737 5743 5759 5763 5771 5780 5787 5794 5801 5808 5809 5812 5819 5825 5828 5828 5836 5838 5842 5843 5847 5847
5488 5501 5515 5527 5537 5544 5561 5580 5581 5594 5600 5614 5623 5632 5643 5652 5661 5675 5687 5695 5708 5713 5720 5733 5750 5749 5756 5763 5771 5778 5785 5792 5798 5803 5806 5812 5816 5821 5826 5828 5832 5836 5838 5841 5842
5479 5488 5500 5512 5521 5536 5553 5564 5570 5581 5585 5596 5604 5618 5630 5640 5646 5662 5677 5688 5694 5702 5716 5724 5727 5740 5750 5756 5763 5772 5779 5783 5789 5795 5797 5806 5810 5813 5819 5823 5826 5830 5832 5835 5836
5470 5480 5490 5502 5517 5529 5546 5553 5560 5564 5565 5580 5591 5607 5619 5624 5648 5652 5669 5675 5684 5698 5706 5722 5724 5733 5737 5751 5757 5765 5771 5777 5784 5788 5790 5796 5798 5811 5810 5815 5823 5824 5827 5830 5830
5464 5473 5483 5492 5504 5521 5529 5542 5551 5556 5552 5563 5582 5592 5606 5615 5628 5643 5658 5670 5681 5686 5696 5702 5713 5718 5735 5743 5748 5757 5763 5768 5774 5777 5776 5787 5793 5801 5805 5810 5816 5818 5822 5824 5827
5456 5467 5477 5486 5499 5508 5519 5530 5538 5540 5550 5559 5571 5584 5598 5608 5614 5626 5642 5656 5658 5671 5680 5692 5699 5711 5720 5727 5735 5745 5754 5758 5762 5765 5770 5779 5781 5788 5801 5805 5808 5812 5815 5817 5818
5448 5458 5468 5479 5491 5499 5513 5521 5525 5532 5543 5553 5565 5576 5582 5598 5601 5615 5628 5640 5652 5663 5676 5682 5690 5700 5710 5717 5731 5739 5744 5747 5751 5759 5767 5770 5774 5779 5793 5798 5802 5804 5806 5810 5813
5442 5451 5461 5472 5483 5493 5502 5506 5512 5528 5536 5549 5556 5565 5575 5580 5596 5603 5617 5630 5641 5647 5666 5677 5686 5695 5702 5714 5723 5725 5729 5743 5747 5754 5757 5759 5768 5774 5781 5790 5793 5796 5799 5802 5805
5438 5448 5457 5466 5476 5483 5490 5495 5505 5518 5529 5542 5552 5561 5569 5575 5580 5591 5607 5622 5632 5649 5661 5669 5678 5685 5692 5701 5705 5714 5732 5731 5736 5743 5748 5752 5757 5766 5772 5781 5785 5789 5791 5793 5795
5433 5442 5450 5459 5466 5473 5476 5487 5502 5510 5521 5533 5542 5551 5559 5568 5577 5586 5597 5615 5624 5641 5648 5660 5671 5675 5681 5684 5699 5707 5707 5718 5728 5734 5740 5745 5750 5760 5764 5768 5777 5780 5783 5785 5786
5431 5439 5446 5452 5459 5462 5473 5488 5498 5504 5514 5523 5533 5543 5550 5561 5569 5578 5589 5603 5620 5631 5638 5648 5657 5663 5675 5681 5690 5693 5704 5710 5715 5728 5732 5738 5743 5751 5758 5758 5763 5769 5771 5773 5775
5426 5434 5438 5445 5450 5460 5473 5482 5488 5499 5506 5519 5529 5535 5542 5555 5565 5574 5589 5607 5612 5619 5624 5635 5642 5653 5660 5669 5676 5682 5693 5703 5711 5716 5723 5730 5741 5741 5744 5748 5751 5755 5759 5763 5765
5421 5426 5432 5439 5449 5459 5466 5474 5482 5494 5500 5512 5521 5520 5530 5541 5553 5570 5578 5588 5601 5610 5619 5627 5634 5643 5654 5670 5676 5678 5683 5691 5695 5702 5712 5720 5729 5732 5735 5738 5740 5742 5744 5747 5751
5417 5423 5432 5439 5448 5456 5460 5468 5476 5484 5492 5500 5504 5514 5528 5534 5543 5556 5569 5582 5591 5600 5609 5617 5628 5639 5648 5657 5662 5669 5674 5679 5684 5697 5700 5719 5716 5722 5726 5727 5729 5731 5734 5736 5739
5414 5422 5429 5438 5441 5447 5453 5462 5472 5480 5481 5492 5506 5515 5521 5524 5530 5549 5566 5571 5578 5588 5600 5610 5620 5629 5636 5645 5651 5656 5664 5670 5679 5687 5696 5698 5706 5709 5709 5710 5717 5721 5724 5726 5729
5411 5418 5424 5430 5435 5439 5448 5460 5471 5474 5478 5488 5498 5502 5508 5527 5537 5553 5565 5573 5580 5584 5596 5604 5611 5617 5627 5634 5638 5639 5655 5665 5676 5675 5688 5686 5701 5699 5703 5706 5708 5709 5711 5716 5719
Wind_Speed
76 76 74 74 71 69 65 58 56 61 64 61 61 57 57 56 52 53 52 54 52 47 45 41 38 35 31 25 26 26 25 22 27 29 24 21 20 18 15 13 10 8 8 6 6
71 72 71 70 71 72 68 64 59 56 57 60 60 62 52 57 56 51 48 51 53 49 48 46 42 40 35 33 29 27 24 24 29 29 21 22 24 21 19 16 9 8 9 6 6
66 68 67 66 66 66 68 67 63 58 55 56 58 61 62 62 58 59 51 50 50 52 51 49 46 43 40 37 32 28 22 31 29 25 24 29 22 26 21 17 10 11 9 8 6
64 66 66 66 65 65 65 64 64 62 58 56 59 60 58 48 62 65 51 49 49 49 53 51 49 47 44 38 35 33 29 30 26 25 27 27 26 25 25 20 14 16 12 9 7
61 62 62 62 63 63 63 62 63 63 62 60 60 65 72 47 53 64 58 53 49 50 53 54 51 49 47 40 38 33 33 33 28 27 28 27 27 27 27 24 17 18 15 13 9
62 62 62 62 62 61 61 60 60 62 63 64 66 64 68 66 54 54 60 59 55 49 50 52 53 51 50 44 42 35 38 39 28 26 28 28 28 27 26 27 23 19 18 16 12
65 65 65 64 63 62 62 60 59 60 61 64 67 69 69 63 61 56 54 60 56 57 59 51 53 55 52 47 43 35 36 38 31 30 28 27 27 29 29 29 25 23 21 19 15
66 68 68 68 68 67 64 62 60 60 61 63 67 66 74 69 68 60 52 53 59 60 59 61 60 58 54 52 46 41 41 44 33 32 29 26 22 24 29 27 26 24 22 20 18
69 69 70 71 71 70 67 66 65 65 66 66 66 68 74 73 69 66 63 57 50 53 62 65 64 62 58 55 50 46 47 47 42 38 33 28 24 27 24 25 26 24 22 23 20
72 72 73 74 74 74 71 70 69 70 71 70 70 69 68 65 67 64 59 67 37 45 63 66 65 65 63 60 56 50 49 47 43 33 34 33 24 28 25 24 26 22 20 18 20
74 74 75 76 77 76 77 76 72 72 71 67 66 65 66 69 69 73 66 65 67 47 60 61 64 64 66 59 53 51 49 47 41 35 39 33 32 30 31 26 24 22 17 11 14
73 74 75 76 77 77 79 77 68 66 69 72 70 70 70 69 72 75 75 68 74 78 56 54 63 61 62 59 56 54 51 49 42 44 45 37 33 35 35 27 26 22 20 20 18
55 68 73 73 74 78 76 71 68 67 70 71 70 72 74 75 74 73 74 79 74 71 79 59 48 60 60 60 58 57 55 52 48 45 46 40 38 37 33 32 28 24 24 20 17
53 53 60 66 71 73 73 69 67 67 72 78 76 75 76 74 76 73 78 77 88 65 66 62 64 56 60 61 58 58 55 54 49 46 47 40 40 39 35 33 30 27 24 20 18
59 60 56 52 60 67 63 64 58 60 66 74 77 74 75 77 72 70 71 75 80 88 72 59 62 61 64 64 59 55 54 52 48 46 46 45 49 38 39 38 29 30 26 24 22
58 54 53 57 55 53 53 56 49 49 58 68 75 74 75 77 76 68 68 56 71 85 77 67 68 61 52 64 61 56 55 52 50 49 55 48 48 45 41 38 33 33 27 26 24
51 52 52 51 51 57 56 54 57 57 56 61 65 68 71 72 77 70 71 69 62 65 65 55 57 54 60 66 62 59 57 55 53 54 60 51 52 53 40 36 31 32 29 28 27
55 54 51 50 51 55 56 54 58 63 62 43 54 62 67 69 69 64 75 76 73 61 66 58 58 54 55 67 64 63 64 63 60 58 55 51 52 53 42 40 35 35 33 30 28
51 52 51 50 53 55 57 63 62 62 55 67 57 48 49 57 61 64 70 80 80 66 66 59 54 54 60 62 66 65 64 58 55 54 54 55 51 49 46 38 38 36 34 33 32
47 46 48 48 50 54 59 67 58 58 62 62 44 49 53 59 62 68 71 74 71 79 71 65 58 57 58 60 71 67 61 61 57 55 55 56 53 48 47 39 37 35 35 35 35
47 44 47 47 51 55 62 63 67 59 61 58 52 29 46 56 62 73 70 78 77 72 68 70 62 59 55 60 61 69 72 67 61 56 53 53 55 47 46 43 38 37 36 36 37
45 44 43 49 53 56 58 59 62 55 62 60 69 53 40 47 61 81 75 61 72 67 70 71 68 65 55 54 55 63 66 70 70 62 57 54 54 49 44 44 40 37 39 42 44
45 44 45 46 50 53 53 54 62 66 62 66 56 66 34 43 55 69 74 54 59 62 64 66 72 69 62 61 63 62 61 62 62 59 56 53 48 49 50 48 48 46 46 46 47
43 42 43 43 40 43 51 55 60 66 66 67 60 62 67 41 42 60 81 63 53 63 62 65 65 66 59 46 49 53 57 61 63 57 48 41 44 51 53 53 51 52 53 50 49
42 41 40 40 37 34 43 53 57 64 69 80 65 63 50 45 43 51 73 65 57 57 72 67 62 63 58 55 58 50 55 61 63 57 56 39 48 49 51 54 56 56 53 51 51
38 38 36 36 36 37 39 47 56 64 75 77 59 45 52 36 42 49 76 54 53 65 77 66 65 63 62 58 55 59 56 48 53 56 55 54 50 51 56 59 57 54 52 51 51
36 35 35 34 33 38 38 42 49 60 77 81 89 80 61 35 41 62 58 50 47 56 68 62 59 58 67 68 64 68 57 54 48 46 49 56 45 53 52 52 53 52 52 50 49
Wind_Direction
227 228 228 229 229 228 226 223 223 227 230 219 221 224 222 223 227 226 226 226 227 225 229 231 232 230 223 217 225 226 233 236 234 235 229 234 242 240 237 233 239 260 273 281 274
224 224 224 225 225 225 225 224 222 220 225 229 218 221 218 228 225 222 228 229 227 226 227 228 230 232 227 224 224 235 242 253 242 237 234 234 234 237 235 232 230 251 270 272 274
222 221 219 220 220 219 220 221 222 220 220 222 229 217 223 226 225 222 227 225 227 227 228 227 229 232 233 227 226 228 233 244 243 240 235 235 231 239 238 240 223 236 244 258 259
221 220 219 218 219 219 218 218 220 220 219 219 220 229 216 218 229 226 236 224 223 229 227 228 229 231 233 235 232 233 235 239 242 247 235 241 233 235 241 237 228 242 241 242 248
225 223 220 220 218 218 219 219 220 220 220 220 220 220 223 224 218 223 228 226 229 230 229 227 229 231 232 233 235 234 233 236 237 246 240 238 237 235 241 243 234 240 246 243 237
226 225 224 222 221 220 221 220 220 220 221 223 223 221 225 227 229 230 223 228 229 233 230 231 229 231 231 231 234 234 230 235 231 234 242 240 240 240 243 243 239 233 239 241 238
225 226 225 225 222 221 223 224 223 223 223 224 227 225 225 227 230 221 234 228 233 231 233 231 233 229 230 232 234 225 228 238 231 233 237 238 244 243 240 238 240 241 244 243 246
224 225 224 225 223 221 221 224 226 228 227 225 227 228 228 225 226 227 224 231 236 238 231 230 233 229 228 230 231 230 231 235 227 235 237 242 234 245 253 245 248 244 244 246 245
223 223 223 224 224 223 222 223 225 227 228 229 228 227 231 225 223 229 231 225 236 230 223 227 230 231 228 228 229 230 231 233 237 237 237 238 230 249 252 247 246 241 244 251 250
223 222 222 222 223 224 223 224 226 228 228 229 230 230 231 235 224 221 221 222 216 228 223 220 227 230 229 227 228 229 233 234 236 237 238 236 232 243 245 238 240 252 249 255 260
225 223 221 222 222 223 225 225 226 230 232 235 234 233 232 234 225 218 220 220 220 224 221 221 227 232 228 227 228 229 231 234 234 233 240 235 232 235 243 239 248 250 247 247 260
223 225 222 222 222 224 226 226 228 234 237 236 234 234 233 232 230 222 221 225 231 231 225 228 227 222 220 220 223 227 229 233 232 233 238 236 233 236 246 246 247 251 255 255 256
218 222 224 224 225 225 225 225 229 230 233 235 235 234 233 232 229 224 221 223 227 228 230 238 240 229 219 218 220 225 226 229 232 233 240 238 235 237 241 247 248 253 255 260 255
209 205 215 220 224 225 225 226 228 231 232 233 233 231 232 232 230 223 219 225 226 235 236 234 234 228 224 219 220 223 228 229 230 233 237 237 236 237 239 244 248 249 250 254 248
209 207 204 207 219 223 221 222 222 223 227 229 228 228 229 231 229 227 220 222 226 231 234 234 236 236 229 222 222 224 229 231 230 232 236 235 242 229 238 243 240 246 248 249 254
211 210 208 207 205 204 208 205 195 208 223 227 228 229 229 227 228 221 216 222 227 229 235 241 241 239 235 225 225 223 228 231 230 230 234 234 240 235 236 245 238 243 247 255 259
206 205 208 208 207 204 200 203 206 208 212 223 224 225 227 227 228 224 210 206 225 220 223 230 231 231 225 220 222 221 223 229 230 229 235 233 239 244 235 241 243 244 243 249 248
202 200 201 204 203 204 203 202 205 211 210 205 219 223 224 224 225 225 207 207 216 221 225 229 224 221 224 220 225 223 224 228 230 233 236 242 238 245 240 240 241 248 251 249 249
196 198 201 201 200 202 202 196 207 208 204 211 215 212 216 218 223 215 210 206 212 221 223 223 229 229 227 226 225 223 223 227 230 234 238 242 242 244 246 243 243 243 246 249 250
197 200 205 205 206 202 205 206 203 207 211 206 209 222 220 218 216 209 207 207 216 220 222 226 226 229 224 223 221 224 226 228 229 234 238 243 247 247 252 245 245 248 248 247 250
199 203 204 205 203 208 210 207 202 207 208 207 200 213 219 213 215 204 198 202 213 214 217 221 224 224 221 225 226 223 223 227 230 232 238 244 248 248 254 257 252 248 246 245 245
201 199 202 206 208 209 212 211 206 207 210 208 204 209 198 211 215 208 200 197 207 210 215 217 224 222 231 231 229 226 230 232 234 236 237 243 250 255 256 256 255 246 239 239 241
201 198 203 206 209 213 212 212 211 208 210 210 211 207 195 204 217 218 204 198 209 212 214 215 220 222 231 228 229 229 228 229 231 233 236 242 249 256 255 253 252 250 246 244 245
201 203 205 208 211 210 212 214 213 209 212 206 199 209 212 201 209 224 204 203 214 214 217 219 224 223 224 233 232 227 227 228 229 230 234 238 243 246 249 251 251 251 254 257 254
206 208 216 219 219 217 213 213 216 215 213 209 196 195 194 202 198 208 218 219 221 218 217 222 221 221 228 229 234 234 231 230 228 231 232 232 241 248 250 250 251 253 255 258 259
209 211 217 220 221 225 223 215 215 215 215 213 192 189 194 208 187 210 214 207 215 223 225 226 226 229 229 227 227 229 233 231 232 234 234 237 238 242 245 247 252 259 260 258 258
213 218 222 220 224 226 228 217 216 218 214 215 211 218 220 182 198 205 202 214 217 221 223 221 223 224 223 230 234 235 229 232 226 235 232 237 238 247 253 257 257 261 260 261 265